Location: Buch
(49.7331°N, 12.1098°E)
Time: 00:48:26
(UTC+00:00)

Landsat 7 - Pass Details

Date: 07 October 2021
Orbit: 701 x 703 km, 98.0° (Epoch: 23 October)

Event Time Altitude Azimuth Distance (km) Brightness Sun altitude
Exits shadow 18:56:50 33° 39° (NE) 1,171 4.7 -23.1°
Drops below altitude 10° 19:00:13 10° 0° (N) 2,181 6.6 -23.6°
Sets 19:02:36 0° 353° (N) 3,103 7.5 -24.0°
